{"data":{"norad_id":43946,"epoch":"2026-05-25T04:04:40.319040Z","epoch_age_seconds":67156,"freshness":"FRESH","line1":"1 43946U 19005E   26145.16991110  .00005484  00000+0  21970-3 0  9999","line2":"2 43946  97.4766 243.9815 0008066  11.7171 348.4253 15.25430583405809","mean_motion":15.25430583,"eccentricity":0.0008066,"inclination_deg":97.4766,"raan_deg":243.9815,"arg_perigee_deg":11.7171,"mean_anomaly_deg":348.4253,"bstar":0.0002197,"rev_number":40580,"period_min":94.399575834386,"perigee_km":483.95334980979,"apogee_km":495.03221017087,"semimajor_km":6867.6297799903,"source":"CELESTRAK","updated_at":"2026-05-25T13:37:55.933535Z"}}